Location: Newark
(42.8481°N, 0.4872°E)
Time: 17:15:37
(UTC+00:00)

Vanguard 1 - Pass Details

Date: 31 October 2020
Orbit: 650 x 3833 km, 34.2° (Epoch: 28 November)

Event Time Altitude Azimuth Distance (km) Brightness Sun altitude
Rises 19:56:47 0° 280° (W) 7,275 15.6 -34.4°
Reaches altitude 10° 20:07:20 10° 253° (WSW) 5,379 14.4 -36.2°
Maximum altitude 20:11:04 11° 239° (WSW) 4,891 14.0 -36.9°
Drops below altitude 10° 20:14:24 10° 224° (SW) 4,632 13.7 -37.5°
Sets 20:21:10 0° 192° (SSW) 4,817 13.6 -38.7°
